{"data":{"norad_id":62488,"epoch":"2026-05-24T21:58:10.453728Z","epoch_age_seconds":72616,"freshness":"FRESH","line1":"1 62488U 25003B   26144.91539877  .00011552  00000+0  42844-3 0  9992","line2":"2 62488  43.0014 218.1128 0001334 275.1626  84.9074 15.27596744 78215","mean_motion":15.27596744,"eccentricity":0.0001334,"inclination_deg":43.0014,"raan_deg":218.1128,"arg_perigee_deg":275.1626,"mean_anomaly_deg":84.9074,"bstar":0.00042844,"rev_number":7821,"period_min":94.265715455073,"perigee_km":482.08368340107,"apogee_km":483.91423447492,"semimajor_km":6861.135958938,"source":"CELESTRAK","updated_at":"2026-05-25T13:38:19.696273Z"}}